Regional Weather Roundup
Issued by NWS

Home | Current Version | Previous Version | Graphics & Text | Print | Product List | Glossary On
Versions: 1 2 3 4 5 6 7 8 9 10 11 12 13 14 15 16 17 18 19 20 21 22 23 24 25 26 27 28 29 30 31 32 33 34 35 36 37 38 39 40 41 42 43 44 45 46 47 48 49 50
903
ASUS43 KOAX 260202
RWRNE

WEATHER ROUNDUP FOR NEBRASKA
NATIONAL WEATHER SERVICE OMAHA NE
900 PM CDT THU MAY 25 2017

NOTES: SATELLITE DATA IS BEING USED TO AUGMENT CLOUD COVER ABOVE
       12000 FEET.
       "FAIR" INDICATES FEW OR NO CLOUDS BELOW 12,000 FEET WITH NO
       SIGNIFICANT WEATHER AND/OR OBSTRUCTIONS TO VISIBILITY.

  * THESE STATIONS DO NOT REPORT WEATHER SUCH AS RAIN...SNOW OR FOG.

NEZ001>004-019>022-054>056-260300-
NEBRASKA PANHANDLE

CITY           SKY/WX    TMP DP  RH WIND       PRES   REMARKS
SCOTTSBLUFF    CLOUDY    58  51  78 S7        29.73R
ALLIANCE         N/A     57  54  89 S9        29.71R
CHADRON        MOCLDY    63  38  39 NW8       29.68R
SIDNEY         LGT RAIN  56  50  80 NW7       29.74R
$$

NEZ057>060-069>072-079>082-260300-
SOUTHWEST NEBRASKA

CITY           SKY/WX    TMP DP  RH WIND       PRES   REMARKS
NORTH PLATTE   CLOUDY    61  56  83 N7        29.62R
IMPERIAL       CLOUDY    59  53  80 N3        29.62S
LEXINGTON      CLOUDY    67  57  70 CALM      29.64R
MCCOOK         CLOUDY    62  54  74 SE7       29.61F
$$

NEZ005>010-023>029-035>040-094-260300-
NORTH CENTRAL NEBRASKA

CITY           SKY/WX    TMP DP  RH WIND       PRES   REMARKS
VALENTINE      MOCLDY    66  46  48 SE3       29.63R
AINSWORTH      CLOUDY    62  53  72 N6        29.63S
BROKEN BOW     MOCLDY    65  57  75 W3        29.61R
ORD            CLOUDY    67  55  65 N3        29.58R
$$

NEZ041-046>049-061>064-073>077-083>087-260300-
SOUTH CENTRAL NEBRASKA

CITY           SKY/WX    TMP DP  RH WIND       PRES   REMARKS
GRAND ISLAND   CLOUDY    69  58  67 CALM      29.60R
HASTINGS       CLOUDY    72  55  55 CALM      29.61R
KEARNEY *      MOCLDY    68  54  60 SE5       29.60S
$$

NEZ011>018-030>034-042>045-260300-
NORTHEAST NEBRASKA

CITY           SKY/WX    TMP DP  RH WIND       PRES   REMARKS
NORFOLK        CLEAR     65  52  62 SE6       29.59R
ALBION         CLEAR     65  52  62 CALM      29.60R
BLAIR          CLOUDY    71  55  56 SE7       29.62R
TEKAMAH        MOCLDY    68  56  65 SE9       29.60R
$$

NEZ050>053-065>068-078-088>093-260300-
SOUTHEAST NEBRASKA

CITY           SKY/WX    TMP DP  RH WIND       PRES   REMARKS
LINCOLN        CLOUDY    71  55  56 SE6       29.60R
OMAHA EPPLEY   CLOUDY    72  54  53 S6        29.62R
FALLS CITY     CLEAR     69  54  58 S8        29.60R
NEBRASKA CITY  PTCLDY    70  49  47 SE5       29.63R
$$

NEZ044-045-051>053-067-260300-
OMAHA AREA

CITY           SKY/WX    TMP DP  RH WIND       PRES   REMARKS
OMAHA EPPLEY   CLOUDY    72  54  53 S6        29.62R
BLAIR          CLOUDY    71  55  56 SE7       29.62R
OFFUTT AFB     CLOUDY    69  56  64 SE3       29.62R
WAHOO          MOCLDY    70  53  56 SE6       29.60R
$$




USA.gov is the U.S. government's official web portal to all federal, state and local government web resources and services.